Weather History for Somerset, KY

Change the Weather History Date:

Sunday, March 24, 2013

  Actual Average Record
Temperature  
Mean Temperature 45 °F -  
Max Temperature 53 °F 61 °F 82 °F (2007)
Min Temperature 35 °F 37 °F 26 °F (2014)
Degree Days  
Heating Degree Days 20    
Moisture  
Dew Point 39 °F    
Average Humidity 87    
Maximum Humidity 100    
Minimum Humidity 46    
Precipitation  
Precipitation 0.59 in - - ()
Sea Level Pressure  
Sea Level Pressure 29.57 in    
Wind  
Wind Speed 6 mph (NE)    
Max Wind Speed 24 mph    
Max Gust Speed 34 mph    
Visibility 8 miles    
Events Rain , Thunderstorm    
Averages and records for this station are not official NWS values.
T = Trace of Precipitation, MM = Missing Value Source: NWS Daily Summary

Daily Weather History Graph

Daily Weather History Graph

Search for Another Location

Airport:

Trip Planner

Search our weather history database for the weather conditions in past years. The results will help you decide how hot, cold, wet, or windy it might be!

Date:

Astronomy

Mar. 24, 2013 Rise Set
Actual Time 7:35 AM EDT 7:54 PM EDT
Civil Twilight 7:09 AM EDT 8:20 PM EDT
Nautical Twilight 6:39 AM EDT 8:50 PM EDT
Astronomical Twilight 6:08 AM EDT 9:21 PM EDT
Moon 5:24 PM EDT (3/24) 5:42 AM EDT (3/24)
Length of Visible Light 13h 10m
Length of Day
12h 18m
Waxing Gibbous, 91% of the Moon is Illuminated
Mar 24
Waxing Gibbous
Mar 27
Full
Apr 3
Last Quarter
Apr 10
New
Apr 18
First Quarter

Hourly Weather History & Observations

Time (EDT) Temp. Windchill Dew Point Humidity Pressure Visibility Wind Dir Wind Speed Gust Speed Precip Events Conditions
12:15 AM 48.2 °F - 30.2 °F 50% 29.80 in 10.0 mi East 4.6 mph - N/A   Scattered Clouds
12:35 AM 48.2 °F - 28.4 °F 46% 29.79 in 10.0 mi East 8.1 mph - N/A   Overcast
12:55 AM 48.2 °F - 28.4 °F 46% 29.80 in 10.0 mi ESE 6.9 mph - N/A   Overcast
1:15 AM 48.2 °F - 28.4 °F 46% 29.80 in 10.0 mi East 5.8 mph - N/A   Overcast
1:35 AM 46.4 °F 43.5 °F 28.4 °F 50% 29.80 in 10.0 mi ESE 5.8 mph - N/A   Overcast
1:55 AM 46.4 °F 44.3 °F 30.2 °F 53% 29.79 in 10.0 mi East 4.6 mph - N/A   Drizzle
2:15 AM 46.4 °F 44.3 °F 32.0 °F 57% 29.78 in 10.0 mi East 4.6 mph - N/A   Drizzle
2:35 AM 44.6 °F - 32.0 °F 61% 29.78 in 10.0 mi Calm Calm - N/A Rain Light Rain
2:55 AM 44.6 °F 42.2 °F 35.6 °F 71% 29.77 in 10.0 mi East 4.6 mph - N/A Rain Light Rain
3:15 AM 42.8 °F 41.1 °F 35.6 °F 76% 29.75 in 10.0 mi East 3.5 mph - 0.02 in Rain Light Rain
3:35 AM 42.8 °F 41.1 °F 35.6 °F 76% 29.73 in 10.0 mi ENE 3.5 mph - 0.03 in Rain Light Rain
3:55 AM 41.0 °F 37.1 °F 35.6 °F 81% 29.73 in 7.0 mi NE 5.8 mph - 0.05 in Rain Light Rain
4:15 AM 41.0 °F 39.0 °F 37.4 °F 87% 29.73 in 10.0 mi ENE 3.5 mph - 0.01 in Rain Rain
4:35 AM 41.0 °F 37.1 °F 37.4 °F 87% 29.72 in 5.0 mi East 5.8 mph - 0.06 in Rain Rain
4:55 AM 41.0 °F 35.8 °F 37.4 °F 87% 29.71 in 7.0 mi East 8.1 mph - 0.09 in Rain Rain
5:15 AM 41.0 °F 37.1 °F 37.4 °F 87% 29.69 in 10.0 mi ENE 5.8 mph - 0.02 in Rain Light Rain
5:35 AM 41.0 °F 38.0 °F 37.4 °F 87% 29.68 in 10.0 mi ENE 4.6 mph - 0.03 in Rain Light Rain
5:55 AM 41.0 °F 38.0 °F 37.4 °F 87% 29.67 in 10.0 mi ENE 4.6 mph - 0.04 in Rain Light Rain
6:15 AM 41.0 °F 38.0 °F 37.4 °F 87% 29.66 in 10.0 mi ENE 4.6 mph - N/A Rain Light Rain
6:35 AM 39.2 °F 33.6 °F 37.4 °F 93% 29.66 in 10.0 mi East 8.1 mph - 0.01 in Rain Light Rain
6:55 AM 39.2 °F 34.2 °F 37.4 °F 93% 29.65 in 7.0 mi East 6.9 mph - 0.03 in Rain Light Rain
7:15 AM 39.2 °F 35.0 °F 37.4 °F 93% 29.65 in 7.0 mi East 5.8 mph - N/A   Drizzle
7:35 AM 39.2 °F 35.9 °F 37.4 °F 93% 29.62 in 7.0 mi East 4.6 mph - 0.01 in Rain Light Rain
7:55 AM 39.2 °F 35.9 °F 37.4 °F 93% 29.63 in 10.0 mi ENE 4.6 mph - 0.02 in Rain Light Rain
8:15 AM 39.2 °F 34.2 °F 39.2 °F 100% 29.60 in 7.0 mi NNE 6.9 mph - N/A   Drizzle
8:35 AM 39.2 °F 35.0 °F 37.4 °F 93% 29.62 in 7.0 mi North 5.8 mph - N/A   Drizzle
8:55 AM 39.2 °F 35.0 °F 37.4 °F 93% 29.61 in 2.0 mi NE 5.8 mph - 0.03 in Rain Rain
9:15 AM 39.2 °F 35.0 °F 37.4 °F 93% 29.61 in 3.0 mi NE 5.8 mph - 0.01 in   Heavy Drizzle
9:35 AM 39.2 °F 35.9 °F 37.4 °F 93% 29.61 in 4.0 mi NNE 4.6 mph - 0.01 in   Drizzle
9:55 AM 39.2 °F 35.9 °F 37.4 °F 93% 29.59 in 5.0 mi NE 4.6 mph - 0.01 in   Drizzle
10:15 AM 39.2 °F 37.0 °F 39.2 °F 100% 29.60 in 4.0 mi NNE 3.5 mph - N/A   Drizzle
10:35 AM 39.2 °F 37.0 °F 39.2 °F 100% 29.59 in 2.0 mi NNE 3.5 mph - N/A   Drizzle
10:55 AM 41.0 °F 39.0 °F 39.2 °F 93% 29.58 in 3.0 mi NE 3.5 mph - N/A   Drizzle
11:15 AM 41.0 °F - 41.0 °F 100% 29.58 in 4.0 mi Calm Calm - N/A   Light Drizzle
11:35 AM 41.0 °F - 41.0 °F 100% 29.59 in 4.0 mi Calm Calm - N/A Rain Light Rain
11:55 AM 41.0 °F - 41.0 °F 100% 29.58 in 2.5 mi Calm Calm - 0.01 in   Heavy Drizzle
12:15 PM 41.0 °F 39.0 °F 41.0 °F 100% 29.58 in 3.0 mi NNE 3.5 mph - 0.01 in Rain Rain
12:35 PM 41.0 °F 38.0 °F 41.0 °F 100% 29.56 in 5.0 mi NNE 4.6 mph - 0.01 in   Overcast
12:55 PM 41.0 °F 39.0 °F 41.0 °F 100% 29.55 in 3.0 mi NNE 3.5 mph - 0.03 in Rain Light Rain
1:15 PM 42.8 °F 40.1 °F 41.0 °F 93% 29.53 in 5.0 mi NNE 4.6 mph - 0.01 in Rain Light Rain
1:35 PM 42.8 °F 40.1 °F 42.8 °F 100% 29.50 in 4.0 mi ENE 4.6 mph - 0.01 in Rain Light Rain
1:55 PM 44.6 °F 43.1 °F 44.6 °F 100% 29.49 in 10.0 mi East 3.5 mph - 0.01 in   Overcast
2:15 PM 44.6 °F 43.1 °F 44.6 °F 100% 29.48 in 10.0 mi ENE 3.5 mph - N/A   Overcast
2:35 PM 46.4 °F - 46.4 °F 100% 29.45 in 10.0 mi Calm Calm - N/A   Overcast
2:55 PM 48.2 °F - 46.4 °F 93% 29.45 in 10.0 mi Calm Calm - N/A   Overcast
3:15 PM 50.0 °F - 46.4 °F 87% 29.42 in 10.0 mi Calm Calm - N/A   Overcast
3:35 PM 48.2 °F - 46.4 °F 93% 29.42 in 10.0 mi North 4.6 mph - N/A   Overcast
3:55 PM 48.2 °F - 46.4 °F 93% 29.40 in 10.0 mi NNE 4.6 mph - N/A Thunderstorm Overcast
4:15 PM 50.0 °F - 48.2 °F 94% 29.36 in 10.0 mi East 4.6 mph - N/A Thunderstorm Overcast
4:35 PM 50.0 °F - 50.0 °F 100% 29.34 in 10.0 mi East 9.2 mph - N/A Thunderstorm Thunderstorm
4:55 PM 50.0 °F - 50.0 °F 100% 29.32 in 10.0 mi ESE 5.8 mph - N/A Thunderstorm Overcast
5:15 PM 51.8 °F - 50.0 °F 94% 29.32 in 10.0 mi SSE 5.8 mph - N/A Rain , Thunderstorm Light Thunderstorms and Rain
5:35 PM 53.6 °F - 51.8 °F 94% 29.33 in 4.0 mi SSW 5.8 mph 16.1 mph 0.07 in Rain , Thunderstorm Rain
5:55 PM 46.4 °F 39.2 °F 46.4 °F 100% 29.40 in 7.0 mi West 18.4 mph 25.3 mph 0.18 in Rain , Thunderstorm Rain
6:15 PM 46.4 °F 41.1 °F 44.6 °F 93% 29.43 in 10.0 mi WNW 11.5 mph 27.6 mph 0.01 in Rain , Thunderstorm Light Thunderstorms and Rain
6:35 PM 44.6 °F 39.7 °F 42.8 °F 93% 29.45 in 7.0 mi WNW 9.2 mph 18.4 mph 0.01 in Thunderstorm Drizzle
6:55 PM 44.6 °F 39.7 °F 42.8 °F 93% 29.47 in 10.0 mi West 9.2 mph - 0.02 in   Light Drizzle
7:15 PM 44.6 °F 38.8 °F 42.8 °F 93% 29.48 in 10.0 mi West 11.5 mph - N/A   Light Drizzle
7:35 PM 42.8 °F 37.5 °F 41.0 °F 93% 29.47 in 10.0 mi West 9.2 mph - N/A   Light Drizzle
7:55 PM 42.8 °F 38.6 °F 41.0 °F 93% 29.48 in 10.0 mi West 6.9 mph - N/A   Overcast
8:15 PM 42.8 °F 38.6 °F 41.0 °F 93% 29.47 in 10.0 mi WSW 6.9 mph - N/A Rain Light Rain
8:35 PM 42.8 °F 36.6 °F 41.0 °F 93% 29.48 in 7.0 mi WSW 11.5 mph 17.3 mph N/A Rain Heavy Rain
8:55 PM 42.8 °F 35.1 °F 37.4 °F 81% 29.48 in 10.0 mi WSW 16.1 mph 26.5 mph N/A   Light Drizzle
9:15 PM 42.8 °F 35.4 °F 39.2 °F 87% 29.49 in 10.0 mi West 15.0 mph 21.9 mph N/A Rain Rain
9:35 PM 41.0 °F 32.5 °F 37.4 °F 87% 29.50 in 7.0 mi West 17.3 mph 26.5 mph 0.06 in Rain Light Rain
9:55 PM 41.0 °F 32.5 °F 35.6 °F 81% 29.51 in 10.0 mi West 17.3 mph 26.5 mph 0.07 in   Overcast
10:15 PM 41.0 °F 31.1 °F 35.6 °F 81% 29.52 in 10.0 mi WSW 23.0 mph 29.9 mph N/A   Overcast
10:35 PM 41.0 °F 31.4 °F 33.8 °F 76% 29.53 in 10.0 mi WSW 21.9 mph 28.8 mph N/A   Overcast
10:55 PM 41.0 °F 31.9 °F 33.8 °F 76% 29.53 in 10.0 mi WSW 19.6 mph 31.1 mph N/A   Overcast
11:15 PM 39.2 °F 28.7 °F 33.8 °F 81% 29.54 in 10.0 mi WSW 23.0 mph 34.5 mph N/A   Drizzle
11:35 PM 37.4 °F 26.1 °F 33.8 °F 87% 29.55 in 7.0 mi West 24.2 mph 33.4 mph N/A   Drizzle
11:55 PM 35.6 °F 24.5 °F 32.0 °F 87% 29.57 in 7.0 mi West 20.7 mph 34.5 mph N/A Rain Light Rain